Weather History for Angel Fire, NM

Change the Weather History Date:

Thursday, November 22, 2012

  Actual Average (KSKX) Record (KSKX)
Temperature  
Mean Temperature 33 °F -  
Max Temperature 50 °F 45 °F 60 °F (2006)
Min Temperature 15 °F 16 °F 10 °F (2007)
Degree Days  
Heating Degree Days 32    
Moisture  
Dew Point 16 °F    
Average Humidity 55    
Maximum Humidity 86    
Minimum Humidity 23    
Precipitation  
Precipitation 0.00 in - - ()
Sea Level Pressure  
Sea Level Pressure 30.30 in    
Wind  
Wind Speed 5 mph (SW)    
Max Wind Speed 16 mph    
Max Gust Speed 17 mph    
Visibility 10 miles    
Events      
Averages and records for this station are not official NWS values.
T = Trace of Precipitation, MM = Missing Value Source: NWS Daily Summary

Daily Weather History Graph

Daily Weather History Graph

Search for Another Location

Airport:

Trip Planner

Search our weather history database for the weather conditions in past years. The results will help you decide how hot, cold, wet, or windy it might be!

Date:

Astronomy

Nov. 22, 2012 Rise Set
Actual Time 6:46 AM MST 4:48 PM MST
Civil Twilight 6:18 AM MST 5:16 PM MST
Nautical Twilight 5:46 AM MST 5:47 PM MST
Astronomical Twilight 5:15 AM MST 6:18 PM MST
Moon 1:27 PM MST (11/22) 1:17 AM MST (11/22)
Length of Visible Light 10h 58m
Length of Day
10h 02m
Waxing Gibbous, 72% of the Moon is Illuminated
Nov 22
Waxing Gibbous
Nov 28
Full
Dec 6
Last Quarter
Dec 13
New
Dec 19
First Quarter

Hourly Weather History & Observations

Time (MST) Temp. Windchill Dew Point Humidity Pressure Visibility Wind Dir Wind Speed Gust Speed Precip Events Conditions
12:15 AM 23.4 °F - 18.9 °F 83% 30.21 in 10.0 mi Calm Calm - N/A   Clear
12:35 AM 24.4 °F 20.1 °F 19.2 °F 81% 30.21 in 10.0 mi South 3.5 mph - N/A   Clear
12:55 AM 22.1 °F 17.4 °F 18.5 °F 86% 30.20 in 10.0 mi SSE 3.5 mph - N/A   Clear
1:15 AM 22.6 °F 16.5 °F 18.1 °F 83% 30.20 in 10.0 mi SE 4.6 mph - N/A   Clear
1:35 AM 23.9 °F 19.5 °F 18.0 °F 78% 30.20 in 10.0 mi SW 3.5 mph - N/A   Clear
1:55 AM 27.1 °F 20.7 °F 18.3 °F 69% 30.19 in 10.0 mi South 5.8 mph - N/A   Clear
2:15 AM 32.7 °F 27.3 °F 20.1 °F 60% 30.19 in 10.0 mi WSW 5.8 mph - N/A   Clear
2:35 AM 36.9 °F 27.5 °F 19.9 °F 50% 30.20 in 10.0 mi WSW 16.1 mph - N/A   Clear
2:55 AM 37.4 °F 29.3 °F 19.4 °F 48% 30.20 in 10.0 mi West 12.7 mph - N/A   Clear
3:15 AM 36.9 °F 30.1 °F 19.2 °F 49% 30.20 in 10.0 mi WSW 9.2 mph - N/A   Clear
3:35 AM 37.4 °F 29.3 °F 18.5 °F 46% 30.20 in 10.0 mi West 12.7 mph 17.3 mph N/A   Clear
3:55 AM 37.6 °F 32.3 °F 17.8 °F 45% 30.20 in 10.0 mi SSW 6.9 mph - N/A   Clear
4:15 AM 37.0 °F 31.6 °F 17.1 °F 44% 30.20 in 10.0 mi West 6.9 mph - N/A   Clear
5:15 AM 37.0 °F - 16.9 °F 44% 30.20 in 10.0 mi Calm Calm - N/A   Clear
5:35 AM 35.1 °F 29.3 °F 17.6 °F 49% 30.21 in 10.0 mi ESE 6.9 mph - N/A   Clear
5:55 AM 37.8 °F - 17.2 °F 43% 30.22 in 10.0 mi Calm Calm - N/A   Clear
6:15 AM 35.2 °F 32.4 °F 17.4 °F 48% 30.22 in 10.0 mi East 3.5 mph - N/A   Clear
6:35 AM 34.2 °F 29.0 °F 16.9 °F 49% 30.23 in 10.0 mi NE 5.8 mph - N/A   Clear
7:55 AM 30.2 °F - 19.4 °F 64% 30.26 in 10.0 mi Calm Calm - N/A   Clear
8:15 AM 35.6 °F 27.5 °F 18.5 °F 50% 30.26 in 10.0 mi WSW 11.5 mph 17.3 mph N/A   Clear
8:35 AM 38.5 °F 31.1 °F 17.6 °F 43% 30.27 in 10.0 mi WSW 11.5 mph - N/A   Clear
8:55 AM 40.3 °F 33.4 °F 16.7 °F 39% 30.27 in 10.0 mi SW 11.5 mph 17.3 mph N/A   Clear
9:15 AM 40.6 °F 34.3 °F 17.2 °F 39% 30.28 in 10.0 mi WSW 10.4 mph - N/A   Clear
9:35 AM 41.0 °F 36.4 °F 17.1 °F 38% 30.29 in 10.0 mi WSW 6.9 mph - N/A   Clear
9:55 AM 42.3 °F - 17.1 °F 36% 30.30 in 10.0 mi Calm Calm - N/A   Clear
10:35 AM 44.6 °F 42.2 °F 15.8 °F 31% 30.31 in 10.0 mi SW 4.6 mph - N/A   Clear
10:55 AM 45.5 °F 43.2 °F 15.8 °F 30% 30.30 in 10.0 mi West 4.6 mph - N/A   Clear
11:35 AM 45.7 °F 42.7 °F 15.4 °F 30% 30.29 in 10.0 mi NW 5.8 mph - N/A   Clear
11:55 AM 46.2 °F 45.0 °F 15.8 °F 30% 30.29 in 10.0 mi NW 3.5 mph - N/A   Clear
12:15 PM 46.6 °F - 15.6 °F 29% 30.29 in 10.0 mi Calm Calm - N/A   Clear
12:35 PM 46.4 °F 45.2 °F 15.4 °F 29% 30.28 in 10.0 mi SW 3.5 mph - N/A   Clear
1:35 PM 48.4 °F - 14.5 °F 26% 30.28 in 10.0 mi SE 4.6 mph - N/A   Clear
3:35 PM 50.0 °F - 13.3 °F 23% 30.30 in 10.0 mi West 5.8 mph - N/A   Clear
4:15 PM 47.3 °F - 13.8 °F 26% 30.32 in 10.0 mi West 4.6 mph - N/A   Clear
5:15 PM 36.5 °F 33.9 °F 14.2 °F 40% 30.34 in 10.0 mi South 3.5 mph - N/A   Clear
5:35 PM 34.9 °F 29.9 °F 14.7 °F 44% 30.35 in 10.0 mi SSE 5.8 mph - N/A   Clear
5:55 PM 32.5 °F 26.2 °F 14.9 °F 48% 30.36 in 10.0 mi SSE 6.9 mph - N/A   Clear
6:15 PM 31.3 °F 27.9 °F 14.9 °F 51% 30.36 in 10.0 mi South 3.5 mph - N/A   Clear
7:15 PM 23.7 °F - 16.0 °F 72% 30.41 in 10.0 mi Calm Calm - N/A   Clear
7:35 PM 20.8 °F - 14.5 °F 77% 30.40 in 10.0 mi Calm Calm - N/A   Clear
7:55 PM 21.6 °F - 14.0 °F 73% 30.41 in 10.0 mi Calm Calm - N/A   Clear
8:15 PM 20.3 °F 13.8 °F 14.9 °F 80% 30.41 in 10.0 mi West 4.6 mph - N/A   Clear
8:35 PM 20.8 °F 16.0 °F 14.7 °F 77% 30.43 in 10.0 mi ESE 3.5 mph - N/A   Clear
8:55 PM 19.4 °F 12.8 °F 14.7 °F 82% 30.44 in 10.0 mi West 4.6 mph - N/A   Clear
9:55 PM 17.6 °F - 13.6 °F 84% 30.46 in 10.0 mi Calm Calm - N/A   Clear
10:15 PM 16.5 °F - 13.1 °F 86% 30.46 in 10.0 mi Calm Calm - N/A   Clear
10:35 PM 18.7 °F - 14.0 °F 82% 30.46 in 10.0 mi Calm Calm - N/A   Clear
10:55 PM 16.3 °F - 12.7 °F 86% 30.46 in 10.0 mi Calm Calm - N/A   Clear
11:55 PM 15.6 °F 10.0 °F 12.0 °F 86% 30.47 in 10.0 mi SSE 3.5 mph - N/A   Clear